User: anonymous   Login
Location: Caltech
(34.1382°N, 118.1253°W)
Time: 23:38:47
(UTC-07:00)
Language:

Cosmos 44 Rocket - Orbit

View from above orbital plane
View from above orbital plane
View from above satellite
View from above satellite

Ground track
Ground track

The orbit data is extracted from the following two-line orbital elements,

1 00877U 64053B   15214.32329598  .00000084  00000-0  42281-4 0  9997
2 00877 065.0785 133.2766 0063063 004.8585 355.3112 14.59141148701580
Epoch (UTC): 02 August 2015 07:45:32
Eccentricity: 0.0063063
inclination: 65.0785°
perigee height: 651 km
apogee height: 740 km
right ascension of ascending node: 133.2766°
argument of perigee: 4.8585°
revolutions per day: 14.59141148
mean anomaly at epoch: 355.3112°
orbit number at epoch: 70158

The dashed part of the orbit path shows where the satellite is in the earth's shadow,  

DLR